Weather History for Knox, IN

Change the Weather History Date:

Thursday, June 6, 2013

  Actual Average (KVPZ) Record (KVPZ)
Temperature  
Mean Temperature 62 °F 66 °F  
Max Temperature 72 °F 77 °F 92 °F (1999)
Min Temperature 53 °F 56 °F 38 °F (1998)
Degree Days  
Heating Degree Days 2 3  
Month to date heating degree days 18  
Since 1 June heating degree days 18  
Since 1 July heating degree days 6297  
Cooling Degree Days 0 4  
Month to date cooling degree days 21  
Year to date cooling degree days 68  
Since 1 June cooling degree days 21  
Growing Degree Days 12 (Base 50)    
Moisture  
Dew Point 48 °F    
Average Humidity 60    
Maximum Humidity 95    
Minimum Humidity 41    
Precipitation  
Precipitation 0.00 in 0.14 in 0.37 in (2008)
Month to date precipitation 0.81  
Year to date precipitation 13.79  
Sea Level Pressure  
Sea Level Pressure 29.87 in    
Wind  
Wind Speed 9 mph (NE)    
Max Wind Speed 15 mph    
Max Gust Speed 16 mph    
Visibility 10 miles    
Events      
T = Trace of Precipitation, MM = Missing Value Source: NWS Daily Summary

Daily Weather History Graph

Daily Weather History Graph

Search for Another Location

Airport:

Trip Planner

Search our weather history database for the weather conditions in past years. The results will help you decide how hot, cold, wet, or windy it might be!

Date:

Astronomy

Jun. 06, 2013 Rise Set
Actual Time 5:13 AM CDT 8:17 PM CDT
Civil Twilight 4:40 AM CDT 8:50 PM CDT
Nautical Twilight 3:57 AM CDT 9:33 PM CDT
Astronomical Twilight 3:07 AM CDT 10:23 PM CDT
Moon 3:56 AM CDT (6/6) 6:37 PM CDT (6/6)
Length of Visible Light 16h 10m
Length of Day
15h 03m
Waning Crescent, 3% of the Moon is Illuminated
Jun 6
Waning Crescent
Jun 8
New
Jun 16
First Quarter
Jun 23
Full
Jun 29
Last Quarter

Hourly Weather History & Observations

Time (CDT) Temp. Dew Point Humidity Pressure Visibility Wind Dir Wind Speed Gust Speed Precip Events Conditions
12:15 AM 64.2 °F 43.3 °F 47% 29.92 in 10.0 mi East 8.1 mph - N/A   Clear
12:35 AM 63.7 °F 40.6 °F 43% 29.92 in 10.0 mi East 9.2 mph - N/A   Clear
12:55 AM 63.5 °F 39.4 °F 41% 29.92 in 10.0 mi East 8.1 mph - N/A   Clear
1:15 AM 63.0 °F 39.4 °F 42% 29.92 in 10.0 mi East 5.8 mph - N/A   Mostly Cloudy
1:35 AM 62.8 °F 38.8 °F 41% 29.91 in 10.0 mi ENE 10.4 mph - N/A   Overcast
1:55 AM 62.2 °F 39.4 °F 43% 29.91 in 10.0 mi ENE 5.8 mph - N/A   Mostly Cloudy
2:15 AM 61.3 °F 39.9 °F 45% 29.90 in 10.0 mi ENE 8.1 mph - N/A   Mostly Cloudy
2:35 AM 60.8 °F 40.6 °F 47% 29.90 in 10.0 mi ENE 6.9 mph - N/A   Scattered Clouds
2:55 AM 60.3 °F 41.0 °F 49% 29.89 in 10.0 mi ENE 6.9 mph - N/A   Scattered Clouds
3:15 AM 59.9 °F 41.5 °F 51% 29.89 in 10.0 mi ENE 8.1 mph - N/A   Clear
3:35 AM 59.7 °F 41.7 °F 51% 29.88 in 10.0 mi ENE 8.1 mph - N/A   Scattered Clouds
3:55 AM 59.5 °F 42.3 °F 53% 29.88 in 10.0 mi ENE 5.8 mph - N/A   Mostly Cloudy
4:15 AM 59.4 °F 43.2 °F 55% 29.88 in 10.0 mi ENE 9.2 mph - N/A   Scattered Clouds
4:35 AM 59.2 °F 44.2 °F 58% 29.88 in 10.0 mi ENE 8.1 mph - N/A   Clear
4:55 AM 58.8 °F 45.0 °F 60% 29.87 in 10.0 mi ENE 8.1 mph - N/A   Clear
5:15 AM 59.0 °F 45.3 °F 60% 29.87 in 10.0 mi ENE 8.1 mph - N/A   Clear
5:35 AM 59.0 °F 45.1 °F 60% 29.87 in 10.0 mi ENE 9.2 mph - N/A   Clear
5:55 AM 58.8 °F 44.8 °F 60% 29.87 in 10.0 mi ENE 11.5 mph - N/A   Clear
6:15 AM 59.0 °F 44.8 °F 59% 29.88 in 10.0 mi East 8.1 mph - N/A   Clear
6:35 AM 59.2 °F 45.1 °F 60% 29.88 in 10.0 mi East 8.1 mph - N/A   Mostly Cloudy
6:55 AM 59.2 °F 45.5 °F 60% 29.88 in 10.0 mi ENE 10.4 mph - N/A   Mostly Cloudy
7:15 AM 59.5 °F 45.9 °F 61% 29.88 in 10.0 mi East 9.2 mph - N/A   Mostly Cloudy
7:35 AM 59.9 °F 46.0 °F 60% 29.88 in 10.0 mi East 9.2 mph - N/A   Overcast
7:55 AM 60.4 °F 46.6 °F 60% 29.88 in 10.0 mi East 9.2 mph - N/A   Scattered Clouds
8:15 AM 61.3 °F 47.1 °F 60% 29.88 in 10.0 mi East 11.5 mph - N/A   Clear
8:35 AM 61.9 °F 47.5 °F 59% 29.88 in 10.0 mi East 8.1 mph 16.1 mph N/A   Clear
8:55 AM 62.1 °F 47.8 °F 60% 29.88 in 10.0 mi ENE 9.2 mph - N/A   Clear
9:15 AM 62.8 °F 48.6 °F 60% 29.88 in 10.0 mi ENE 8.1 mph - N/A   Clear
9:35 AM 64.0 °F 48.7 °F 57% 29.87 in 10.0 mi NE 10.4 mph - N/A   Clear
9:55 AM 65.3 °F 49.1 °F 56% 29.87 in 10.0 mi ENE 10.4 mph - N/A   Clear
10:15 AM 67.5 °F 50.0 °F 53% 29.87 in 10.0 mi ENE 8.1 mph - N/A   Clear
10:35 AM - - N/A% - - North - - N/A   Unknown
10:55 AM - - N/A% - - North - - N/A   Unknown
11:15 AM - - N/A% 29.86 in 10.0 mi NE 5.8 mph - N/A   Clear
11:35 AM 70.9 °F 49.1 °F 46% 29.86 in 10.0 mi East 5.8 mph - N/A   Clear
11:55 AM 71.1 °F 49.3 °F 46% 29.86 in 10.0 mi ENE 5.8 mph - N/A   Clear
12:15 PM 71.8 °F 49.5 °F 45% 29.86 in 10.0 mi NNE 3.5 mph - N/A   Scattered Clouds
12:35 PM 72.0 °F 49.1 °F 44% 29.87 in 10.0 mi NNE 8.1 mph - N/A   Mostly Cloudy
12:55 PM 71.4 °F 49.1 °F 45% 29.86 in 10.0 mi North 9.2 mph - N/A   Mostly Cloudy
1:15 PM 72.1 °F 50.0 °F 46% 29.85 in 10.0 mi NNE 8.1 mph - N/A   Mostly Cloudy
1:35 PM 70.3 °F 50.4 °F 49% 29.85 in 10.0 mi NNW 15.0 mph - N/A   Mostly Cloudy
1:55 PM 68.0 °F 52.7 °F 58% 29.85 in 10.0 mi North 13.8 mph - N/A   Mostly Cloudy
2:15 PM 65.7 °F 53.6 °F 65% 29.85 in 10.0 mi North 12.7 mph - N/A   Overcast
2:35 PM 65.5 °F 55.0 °F 69% 29.84 in 10.0 mi NNE 11.5 mph - N/A   Mostly Cloudy
2:55 PM 67.1 °F 54.3 °F 63% 29.84 in 10.0 mi NNE 11.5 mph - N/A   Overcast
3:15 PM 69.1 °F 54.9 °F 60% 29.84 in 10.0 mi NNE 10.4 mph - N/A   Mostly Cloudy
3:35 PM 69.1 °F 53.4 °F 57% 29.85 in 10.0 mi North 9.2 mph - N/A   Overcast
3:55 PM 69.1 °F 52.5 °F 55% 29.85 in 10.0 mi North 11.5 mph - N/A   Overcast
4:15 PM 68.9 °F 52.5 °F 56% 29.85 in 10.0 mi North 10.4 mph 16.1 mph N/A   Overcast
4:35 PM 68.5 °F 52.2 °F 56% 29.85 in 10.0 mi North 11.5 mph - N/A   Overcast
4:55 PM 69.8 °F 52.3 °F 54% 29.86 in 10.0 mi NNE 8.1 mph - N/A   Mostly Cloudy
5:15 PM 70.0 °F 51.6 °F 52% 29.85 in 10.0 mi North 13.8 mph - N/A   Scattered Clouds
5:35 PM 69.6 °F 50.5 °F 51% 29.85 in 10.0 mi NNE 11.5 mph - N/A   Clear
5:55 PM 68.9 °F 52.0 °F 55% 29.85 in 10.0 mi North 12.7 mph - N/A   Clear
6:15 PM 68.4 °F 51.3 °F 54% 29.85 in 10.0 mi North 12.7 mph - N/A   Clear
6:35 PM 67.1 °F 51.4 °F 57% 29.85 in 10.0 mi NNE 10.4 mph - N/A   Clear
6:55 PM 66.7 °F 51.8 °F 59% 29.86 in 10.0 mi North 10.4 mph - N/A   Clear
7:15 PM 65.7 °F 52.0 °F 61% 29.86 in 10.0 mi North 11.5 mph - N/A   Clear
7:35 PM 64.2 °F 52.5 °F 66% 29.86 in 10.0 mi North 11.5 mph - N/A   Clear
7:55 PM 63.1 °F 52.3 °F 68% 29.86 in 10.0 mi North 10.4 mph - N/A   Clear
8:15 PM 62.1 °F 52.0 °F 70% 29.86 in 10.0 mi North 9.2 mph - N/A   Scattered Clouds
8:35 PM 60.8 °F 52.0 °F 73% 29.86 in 10.0 mi North 11.5 mph - N/A   Mostly Cloudy
8:55 PM 59.4 °F 52.5 °F 78% 29.87 in 10.0 mi North 10.4 mph - N/A   Mostly Cloudy
9:15 PM 58.5 °F 53.6 °F 84% 29.87 in 10.0 mi North 9.2 mph - N/A   Mostly Cloudy
9:35 PM 57.6 °F 53.6 °F 87% 29.88 in 10.0 mi North 8.1 mph - N/A   Mostly Cloudy
9:55 PM 56.5 °F 53.2 °F 89% 29.89 in 10.0 mi North 8.1 mph - N/A   Scattered Clouds
10:15 PM 55.6 °F 52.9 °F 91% 29.89 in 10.0 mi North 5.8 mph - N/A   Scattered Clouds
10:35 PM 54.9 °F 52.7 °F 92% 29.89 in 10.0 mi NNW 6.9 mph - N/A   Scattered Clouds
10:55 PM 54.7 °F 52.7 °F 93% 29.88 in 10.0 mi North 5.8 mph - N/A   Clear
11:15 PM 54.5 °F 52.5 °F 93% 29.88 in 10.0 mi North 6.9 mph - N/A   Clear
11:35 PM 53.8 °F 52.3 °F 95% 29.88 in 10.0 mi North 3.5 mph - N/A   Clear
11:55 PM 53.6 °F 52.3 °F 95% 29.88 in 10.0 mi Calm Calm - N/A   Clear